Location: Unspecified
(0.0000°N, 0.0000°E)
Time: 18:50:44
(UTC+00:00)

Vanguard 1 Rocket - Pass Details

Date: 26 November 2019
Orbit: 650 x 4226 km, 34.3° (Epoch: 05 December)

Event Time Altitude Azimuth Distance (km) Brightness Sun altitude
Rises 15:30:04 0° 232° (SW) 7,642 13.2 31.7°
Reaches altitude 10° 15:37:32 10° 218° (SW) 7,061 13.0 30.1°
Maximum altitude 15:55:39 23° 172° (S) 6,345 12.0 25.9°
Drops below altitude 10° 16:12:55 10° 127° (SE) 6,786 11.6 21.9°
Sets 16:19:44 0° 112° (ESE) 7,306 11.6 20.4°
